sat.trackr.live / text

‹ back to catalog

STARLINK-4169

NORAD 53280 · 2022-086AQ

PAYLOAD ACTIVE UNKNOWN

§ Identity

Operator
Country
US
Launch date
2022-07-24
Launch site
AFETR
Launch vehicle
Mass (kg)
RCS (m²)

Purposes: comms

External: N2YO · Heavens-Above · Gunter

§ Orbital elements

Epoch: 2026-05-25T01:13:09.857856Z

Period
95.44 min
Inclination
53.2136°
Eccentricity
0.0001404
Mean motion
15.08834009 rev/d
Perigee alt
538.8 km
Apogee alt
540.7 km
Semi-major
6,917.9 km
B*
-4.8860e-7
RAAN
155.9964°
Arg perigee
89.6822°
Mean anomaly
270.4331°
Rev number
21,336

§ Raw data

STARLINK-41691 53280U 22086AQ  26145.05080854 -.00000296  00000+0 -48860-6 0  99942 53280  53.2136 155.9964 0001404  89.6822 270.4331 15.08834009213366

JSON: /api/v1/satellites/53280 · /tle

For live sub-satellite position, see the globe view (requires WebGL).

§ Visibility from observer

Set your observer location to see the next 7 days of passes ≥ 10°. The values pass through the URL so the page stays shareable.

No JS? Fill the form by hand. The geolocation button needs JavaScript.